User: anonymous   Login
Location: Caltech
(34.1382°N, 118.1253°W)
Time: 09:57:48
(UTC-07:00)
Language:

Lacrosse 5 - Orbit

View from above orbital plane
View from above orbital plane
View from above satellite
View from above satellite

Ground track
Ground track

The orbit data is extracted from the following two-line orbital elements,

1 28646U 05016A   15229.08588002 0.00000000  00000-0  00000-0 0    01
2 28646  57.0110 106.9215 0006000  97.9371 262.0629 14.52103932    05
Epoch (UTC): 17 August 2015 02:03:40
Eccentricity: 0.0006000
inclination: 57.0110°
perigee height: 714 km
apogee height: 723 km
right ascension of ascending node: 106.9215°
argument of perigee: 97.9371°
revolutions per day: 14.52103932
mean anomaly at epoch: 262.0629°
orbit number at epoch: 0

The dashed part of the orbit path shows where the satellite is in the earth's shadow,  

DLR